CW9203 Auckland NZ current weather conditions

sailwx.info

Wind from 065

Air temperature 13.9° C
Dewpoint 13.4° C

Last reported at 2020-May-29 05:48 UTC.
Time now 2020-May-29 06:24 UTC

Location: S 36°54' E 174°44'.
View on Google Maps.

See reports from other nearby stations

  
Tides and Currents Weather Stations Pressure Air Temp Water Temp Dewpoint Dewpoint Depression Visibility Wind Speed Wind Dir Waves Ship Positions
date/time (UTC)wind fromknots sea level pressurealtimeterstation pressurevisibilityair tempwater tempwave heightnotes
2020-May-29 06:03 072 13.9
2020-May-29 05:48 065 13.9
2020-May-29 05:43 065 13.9
2020-May-29 05:38 096 13.9
2020-May-29 05:33 074 13.9
2020-May-29 05:18 056 13.9
2020-May-29 05:13 078 13.9
2020-May-29 05:08 054 13.9
2020-May-29 05:03 054 13.9
2020-May-29 04:48 121 13.9
2020-May-29 04:43 100 13.9
2020-May-29 04:38 121 13.9
2020-May-29 04:33 071 13.9
2020-May-29 04:18 087 13.9
2020-May-29 04:13 042 13.9
2020-May-29 04:03 051 13.9
2020-May-29 03:48 038 13.9
2020-May-29 03:38 047 13.9
2020-May-29 03:18 034 13.9
2020-May-29 03:13 022 13.9
2020-May-29 03:08 044 13.9
2020-May-29 03:03 034 13.9
2020-May-29 02:48 051 13.9
2020-May-29 02:38 020 13.9
2020-May-29 02:33 015 13.9
2020-May-29 02:13 028 13.9
2020-May-29 02:08 004 13.9
2020-May-29 01:48 350 15.0
2020-May-29 01:38 316 15.0
2020-May-29 01:33 005 15.0
2020-May-29 01:18 349 15.0
2020-May-29 01:03 344 15.6
2020-May-29 00:48 018 15.6
2020-May-29 00:38 349 15.6
2020-May-29 00:18 031 15.6
2020-May-29 00:08 012 15.6
2020-May-29 00:03 359 15.6
2020-May-28 23:43 348 15.6
2020-May-28 23:33 348 15.0
2020-May-28 23:18 002 14.4
2020-May-28 23:03 354 15.0
2020-May-28 22:38 325 15.0
2020-May-28 22:08 006 16.1
2020-May-28 22:03 359 16.1
2020-May-28 21:48 358 15.6
2020-May-28 21:43 020 15.6
2020-May-28 21:38 012 15.0
2020-May-28 21:08 052 14.4
2020-May-28 21:03 053 14.4
2020-May-28 20:48 080 14.4
2020-May-28 20:43 068 13.9
2020-May-28 20:38 064 13.9
2020-May-28 20:33 065 13.9
2020-May-28 20:18 064 13.9
2020-May-28 20:08 059 13.9
2020-May-28 20:03 057 13.9
2020-May-28 19:48 059 13.3
2020-May-28 19:43 054 13.3
2020-May-28 19:33 052 13.3
2020-May-28 19:18 059 13.3
2020-May-28 19:13 057 13.3
2020-May-28 19:03 070 13.3
2020-May-28 18:38 044 13.3
2020-May-28 18:33 044 13.3
2020-May-28 18:18 058 13.3
2020-May-28 18:13 061 13.3
2020-May-28 18:08 053 13.3
2020-May-28 18:03 075 13.3
2020-May-28 17:48 057 13.3
2020-May-28 17:38 063 13.3
2020-May-28 17:33 056 13.3
2020-May-28 17:18 047 13.3
2020-May-28 17:13 039 13.3
2020-May-28 17:08 051 13.3
2020-May-28 17:03 050 13.3
2020-May-28 16:48 026 13.3
2020-May-28 16:43 042 13.3
2020-May-28 16:38 026 13.3
2020-May-28 16:33 044 13.3
2020-May-28 16:18 048 13.3
2020-May-28 16:13 036 13.9
2020-May-28 16:08 047 13.9
2020-May-28 16:03 045 13.9
2020-May-28 15:33 045 13.9
2020-May-28 15:18 052 13.9
2020-May-28 15:13 039 13.9
2020-May-28 15:08 031 13.9
2020-May-28 15:03 040 13.9
2020-May-28 14:48 042 13.9
2020-May-28 14:43 042 13.3
2020-May-28 14:38 057 13.3
2020-May-28 14:33 054 13.3
2020-May-28 14:18 046 13.3
2020-May-28 14:13 060 13.3
2020-May-28 14:03 043 13.3
2020-May-28 13:43 035 12.8
2020-May-28 13:38 027 12.8
2020-May-28 13:33 053 12.8
2020-May-28 13:18 057 12.8
2020-May-28 13:13 062 12.8
2020-May-28 13:08 066 12.8
2020-May-28 13:03 060 12.8
2020-May-28 12:48 063 12.8
2020-May-28 12:43 068 12.8
2020-May-28 12:38 069 12.8
2020-May-28 12:33 077 12.8
2020-May-28 12:18 082 13.3
2020-May-28 12:08 068 13.3
2020-May-28 11:48 068 13.3
2020-May-28 11:43 060 13.3
2020-May-28 11:38 053 13.3
2020-May-28 11:33 026 13.3
2020-May-28 11:18 021 13.9
2020-May-28 11:08 030 13.9
2020-May-28 11:03 036 13.9
2020-May-28 10:33 019 13.3
2020-May-28 10:18 069 13.3
2020-May-28 10:13 069 13.3
2020-May-28 10:03 069 13.3
2020-May-28 09:48 070 13.3
2020-May-28 09:33 052 13.9
2020-May-28 09:18 063 13.9
2020-May-28 09:13 049 13.9
2020-May-28 09:08 039 13.9
2020-May-28 09:03 031 13.9
2020-May-28 08:48 036 13.9
2020-May-28 08:43 033 13.9
2020-May-28 08:38 040 13.9
2020-May-28 08:18 042 13.9
2020-May-28 08:08 025 13.9
2020-May-28 08:03 030 13.9
2020-May-28 07:48 031 13.9
2020-May-28 07:43 045 13.9
2020-May-28 07:13 009 13.9
2020-May-28 07:03 009 13.9
2020-May-28 06:43 071 13.9
2020-May-28 06:38 055 13.9
2020-May-28 06:33 069 14.4
2020-May-28 05:38 041 14.4
2020-May-28 05:33 052 14.4
2020-May-28 05:18 006 15.0
2020-May-28 05:13 012 15.0
2020-May-28 05:08 018 15.0
2020-May-28 05:03 022 15.0
2020-May-28 04:48 040 15.6
2020-May-28 04:43 020 16.1
2020-May-28 04:18 018 16.1
2020-May-28 04:08 025 16.1
2020-May-28 04:03 001 16.1
2020-May-28 03:43 018 16.7
2020-May-28 03:38 026 16.7
2020-May-28 03:33 025 16.7
2020-May-28 03:18 032 17.2
2020-May-28 03:13 014 17.2
2020-May-28 03:08 346 17.2
2020-May-28 02:48 041 16.7
2020-May-28 02:38 355 16.7
2020-May-28 02:18 16.7
2020-May-28 02:08 17.2
2020-May-28 02:03 025 17.2
2020-May-28 01:48 035 17.2
2020-May-28 01:38 010 17.2
2020-May-28 01:33 347 17.2
2020-May-28 01:18 345 17.2
2020-May-28 01:03 021 17.2
2020-May-28 00:48 031 17.2
2020-May-28 00:43 023 17.2
2020-May-28 00:38 036 17.2
2020-May-28 00:33 332 17.2
2020-May-28 00:08 068 16.7
2020-May-28 00:03 033 16.7
2020-May-27 23:48 062 16.1
2020-May-27 23:43 002 16.1
2020-May-27 23:38 059 16.1
2020-May-27 23:33 018 16.1
2020-May-27 23:18 045 15.6
2020-May-27 23:13 057 15.6
2020-May-27 23:08 044 15.6
2020-May-27 22:48 042 15.0
2020-May-27 22:43 097 14.4
2020-May-27 22:38 105 13.9
2020-May-27 22:18 131 13.3
2020-May-27 22:13 130 13.3
2020-May-27 22:08 131 12.8
2020-May-27 21:48 128 12.8
2020-May-27 21:43 122 12.2
2020-May-27 21:38 137 12.2
2020-May-27 21:33 105 12.2
2020-May-27 21:18 122 12.2
2020-May-27 21:13 126 12.2
2020-May-27 21:08 126 12.2
2020-May-27 21:03 130 11.7
2020-May-27 20:48 151 11.7
2020-May-27 20:43 106 11.7
2020-May-27 20:38 106 11.7
2020-May-27 20:33 106 11.7
2020-May-27 20:13 112 11.1
2020-May-27 20:03 110 11.1
2020-May-27 19:48 109 10.6
2020-May-27 19:38 110 10.6
2020-May-27 19:33 112 10.6
2020-May-27 19:13 109 10.6
2020-May-27 19:08 109 10.6
2020-May-27 18:48 112 11.1
2020-May-27 18:43 112 11.1
2020-May-27 18:38 112 11.1
2020-May-27 18:13 112 11.7
2020-May-27 18:08 112 11.7
2020-May-27 17:48 112 11.7
2020-May-27 17:43 112 11.7
2020-May-27 17:33 112 11.7
2020-May-27 17:18 123 11.7
2020-May-27 17:13 123 11.7
2020-May-27 17:08 123 11.7
2020-May-27 16:43 116 11.7
2020-May-27 16:38 101 12.2
2020-May-27 16:33 104 12.2
2020-May-27 16:18 126 12.2
2020-May-27 16:13 118 12.2
2020-May-27 16:03 128 12.2
2020-May-27 15:48 128 12.2
2020-May-27 15:43 128 12.2
2020-May-27 15:38 128 12.2
2020-May-27 15:13 133 12.2
2020-May-27 15:08 137 11.7
2020-May-27 15:03 139 11.7
2020-May-27 14:48 244 11.7
2020-May-27 14:43 244 11.7
2020-May-27 14:38 099 11.7
2020-May-27 14:18 098 11.7
2020-May-27 14:08 099 11.7
2020-May-27 13:48 125 11.7
2020-May-27 13:43 112 11.7
2020-May-27 13:38 116 11.7
2020-May-27 13:18 111 11.7
2020-May-27 13:13 120 11.7
2020-May-27 13:08 113 11.7
2020-May-27 13:03 125 11.7
2020-May-27 12:43 088 11.7
2020-May-27 12:38 092 11.7
2020-May-27 12:18 082 11.7
2020-May-27 12:13 082 11.7
2020-May-27 12:03 108 11.1
2020-May-27 11:48 133 11.1
2020-May-27 11:43 133 11.1
2020-May-27 11:33 134 11.1
2020-May-27 11:18 134 11.1
2020-May-27 11:13 133 11.1
2020-May-27 11:08 134 11.1
2020-May-27 10:48 128 10.6
2020-May-27 10:38 139 10.6
2020-May-27 10:33 139 10.6
2020-May-27 10:13 147 11.1
2020-May-27 10:08 132 11.1
2020-May-27 10:03 130 11.1
2020-May-27 09:43 130 11.1
2020-May-27 09:33 127 11.1
2020-May-27 09:18 125 11.1
2020-May-27 09:13 128 11.1
2020-May-27 08:48 122 11.7
2020-May-27 08:38 123 11.7
2020-May-27 08:08 121 12.2
2020-May-27 08:03 102 12.2
2020-May-27 07:48 116 12.8
2020-May-27 07:43 111 12.8
2020-May-27 07:38 109 12.8
2020-May-27 07:18 106 12.8
2020-May-27 06:43 111 12.8
2020-May-27 06:38 127 12.8
2020-May-27 06:33 129 12.8
2020-May-27 06:18 119 12.8
2020-May-27 06:13 117 12.8
2020-May-27 06:08 114 12.8